Location: La Pernelle
(49.6188°N, 1.2999°W)
Time: 20:14:19
(UTC+00:00)

FENGYUN 1C DEB - Visible Passes

Search period start: 24 January 2022 00:00
Search period end: 03 February 2022 00:00
Orbit: 819 x 836 km, 98.9° (Epoch: 24 January)

Date Brightness Start Highest point End Pass type
(mag) Time Alt. Az. Time Alt. Az. Time Alt. Az.
24 Jan ? 17:56:30 12° NE 17:56:33 12° NE 17:58:22 10° NNE visible
24 Jan ? 19:38:00 32° N 19:38:00 32° N 19:40:57 10° N visible
24 Jan ? 21:19:30 15° NW 21:19:30 15° NW 21:20:40 10° NW visible
25 Jan ? 19:19:02 31° NNE 19:19:02 31° NNE 19:22:13 10° N visible
25 Jan ? 21:00:32 20° NW 21:00:32 20° NW 21:02:24 10° NNW visible
26 Jan ? 19:00:03 27° NE 19:00:03 27° NE 19:03:24 10° N visible
26 Jan ? 20:41:33 26° NW 20:41:33 26° NW 20:44:00 10° NNW visible
27 Jan ? 18:41:03 22° NE 18:41:03 22° NE 18:44:29 10° N visible
27 Jan ? 20:22:34 33° NNW 20:22:34 33° NNW 20:25:30 10° NNW visible
28 Jan ? 18:22:05 17° NE 18:22:05 17° NE 18:25:26 10° NNE visible
28 Jan ? 20:03:35 39° NNW 20:03:35 39° NNW 20:06:56 10° NNW visible
28 Jan ? 21:45:05 12° NW 21:45:05 12° NW 21:45:41 10° NW visible
29 Jan ? 18:03:05 13° ENE 18:03:42 13° NE 18:06:06 10° NNE visible
29 Jan ? 19:44:35 42° N 19:44:35 42° N 19:48:16 10° N visible
29 Jan ? 21:26:05 17° NW 21:26:05 17° NW 21:27:46 10° NW visible
30 Jan ? 19:25:36 39° NNE 19:25:36 39° NNE 19:29:34 10° N visible
30 Jan ? 21:07:06 23° NW 21:07:06 23° NW 21:09:35 10° NNW visible
31 Jan ? 19:06:36 33° NE 19:06:36 33° NE 19:10:46 10° N visible
31 Jan ? 20:48:07 30° NW 20:48:07 30° NW 20:51:13 10° NNW visible
01 Feb ? 18:47:36 25° ENE 18:47:36 25° ENE 18:51:53 10° N visible
01 Feb ? 20:29:06 41° NW 20:29:06 41° NW 20:32:45 10° NNW visible
02 Feb ? 18:28:36 19° ENE 18:29:09 19° NE 18:32:54 10° N visible
02 Feb ? 20:10:07 52° NNW 20:10:07 52° NNW 20:14:11 10° NNW visible
02 Feb ? 21:51:37 12° WNW 21:51:37 12° WNW 21:52:32 10° NW visible
